Regional Weather Roundup
Issued by NWS

Home | Current Version | Previous Version | Text Only | Print | Product List | Glossary On
Versions: 1 2 3 4 5 6 7 8 9 10 11 12 13 14 15 16 17 18 19 20 21 22 23 24 25 26 27 28 29 30 31 32 33 34 35 36 37 38 39 40 41 42 43 44 45 46 47 48 49 50
000
ASUS46 KLOX 292113
RWRCA

SOUTHERN CALIFORNIA WEATHER ROUNDUP
NATIONAL WEATHER SERVICE OXNARD CALIFORNIA
200 PM PDT SUN MAY 29 2016

NOTE: "FAIR" INDICATES FEW OR NO CLOUDS BELOW 12,000 FEET WITH NO
SIGNIFICANT WEATHER AND/OR OBSTRUCTIONS TO VISIBILITY.

  -  STATIONS PRECEEDED BY AN ASTERISK (*) ARE NOT NWS OR FAA
     STATIONS AND ARE NOT SUBJECT TO NWS AND FAA QUALITY CONTROL.

CAZ041-042-087-292200-
LA AND ORANGE COUNTY COASTAL AREAS


CITY           SKY/WX    TMP DP  RH WIND       PRES   REMARKS
L.A. DOWNTOWN  CLOUDY    70  54  56 VRB3      29.99F
L.A. AIRPORT   MOSUNNY   67  53  61 W16       30.01S
LONG BEACH     PTSUNNY   70  53  54 S7        30.00F

CITY           SKY/WX    TMP DP  RH WIND       PRES   REMARKS
AVALON           N/A     64 N/A N/A MISG        N/A
FULLERTON      CLOUDY    71  53  52 SW3       29.99F
*GETTY CENTER    N/A     68  52  56 SW12G18     N/A
HAWTHORNE      MOSUNNY   69  52  54 W13       30.01S
*LEO CARRILLO    N/A     67  55  64 W10         N/A
*LOS ALAMITOS  PTSUNNY   71  55  57 S12       30.00F
*REDONDO BEACH   N/A     69  55  60 S5        30.01S
SANTA ANA      PTSUNNY   67  54  63 SW8       30.00F
STA MONICA APT MOSUNNY   66  52  60 SW10      30.01S
*STA MON PIER    N/A     61  56  86 NW14      29.95S
TORRANCE       MOSUNNY   70  57  64 W12       30.01F
*UCLA            N/A     64  50  59 SW12      29.98S

$$

CAZ547-548-048-292200-
LA COUNTY VALLEYS AND INLAND EMPIRE


CITY           SKY/WX    TMP DP  RH WIND       PRES   REMARKS
BURBANK        MOSUNNY   69  53  56 E7        29.99F
VAN NUYS       SUNNY     72  52  49 E6        29.99F

CITY           SKY/WX    TMP DP  RH WIND       PRES   REMARKS
CORONA AIRPORT MOCLDY    72  54  53 W10       29.99F
*CHATSWORTH      N/A     73  55  53 E2        29.98F
CHINO          PTSUNNY   74  54  49 N5        30.00F
*CLAREMONT       N/A     62  54  74 S3          N/A
MARCH AFB      MOSUNNY   70  54  57 NW9G20    29.99F
*NORTHRIDGE      N/A     70  50  49 SE3         N/A
ONTARIO        PTSUNNY   67  52  58 W6        30.00S
*PASADENA        N/A     68  57  68 E1          N/A
POMONA         CLOUDY    64  54  68 W6        30.03F
RIVERSIDE      CLOUDY    68  52  56 W3        30.00F
SAN BERNARDINO PTSUNNY   72  52  49 W5        30.00F
*SAN RAFAEL HI   N/A     64  58  81 CALM        N/A
*SAUGUS          N/A     67  53  59 S7G18       N/A
*WHITEMAN AP   PTSUNNY   66  54  63 CALM      30.03F
*WHITTIER HILL   N/A     69  52  54 SW7         N/A
*WOODLAND HILL   N/A     73  52  46 NE3         N/A

$$

CAZ054-055-292200-
LA AND SAN BERNARDINO COUNTY MOUNTAINS


CITY           SKY/WX    TMP DP  RH WIND       PRES   REMARKS
*ACTON           N/A     76  51  40 SW10        N/A
*BIG BEAR AIRP CLEAR     63  12  14 E8G16     30.14S
*BIG PINES       N/A     64  26  24 W2          N/A
*CHILAO          N/A     68  49  51 S7          N/A
SANDBERG       LGT RAIN  77  37  23 NW21G30   30.08S
*WARM SPRINGS    N/A     65  48  54 CALM        N/A

$$

CAZ028-029-059-060-099-292200-
ANTELOPE VALLEY AND SURROUNDING AREAS


CITY           SKY/WX    TMP DP  RH WIND       PRES   REMARKS
LANCASTER      PTSUNNY   85  42  22 W10G18    29.93F
PALMDALE       MOSUNNY   86  30  13 N8        29.94F
*POPPY PARK      N/A     81  51  34 SW16        N/A

CITY           SKY/WX    TMP DP  RH WIND       PRES   REMARKS
29 PALMS       MOSUNNY   85  12   6 SE12G20   29.98F
BARSTOW/DAGGET SUNNY     89  27  10 E10G24    29.91S
BISHOP         MOSUNNY   85  28  12 SW8G20    30.00F
CHINA LAKE     MOSUNNY   89  28  11 VRB5      29.91F
EDWARDS AFB    MOSUNNY   86  28  12 VRB1      29.91F
MOJAVE         SUNNY     84  32  15 E14       29.96F
NEEDLES        SUNNY     94  21   7 S14G28    29.87F
VICTORVILLE    MOSUNNY   84  30  14 W6G16     29.95F

$$

CAZ039-040-292200-
VENTURA AND SANTA BARBARA COUNTY COAST


CITY           SKY/WX    TMP DP  RH WIND       PRES   REMARKS
CAMARILLO      CLOUDY    66  52  60 SW7       30.01F
NWS OXNARD       N/A     69  53  57 SW6       30.01F
OXNARD AIRPORT CLOUDY    66  53  63 SW12      30.02S
*POINT MUGU    PTSUNNY   67  53  61 W12       30.02F
SBA APT/GOLETA CLOUDY    63  55  75 VRB6      30.02S
*SANTA BARBARA   N/A     64  54  68 CALM      30.09F
*VENTURA         N/A     66  56  70 SW7       29.99F

$$

CAZ044-045-292200-
VENTURA COUNTY VALLEYS


CITY           SKY/WX    TMP DP  RH WIND       PRES   REMARKS
*SIMI VALLEY     N/A     70  57  63 W10       29.95S
*WESTLAKE VILL   N/A     72  56  57 W1        29.98S
*OJAI            N/A     67  57  68 W6        29.94F
*FILLMORE        N/A     72  58  60 CALM      29.89F

$$

CAZ053-292200-
VENTURA COUNTY MOUNTAINS


CITY           SKY/WX    TMP DP  RH WIND       PRES   REMARKS
*ROSE VALLEY     N/A     70  59  68 MISG        N/A

$$

CAZ034-035-036-292200-
CENTRAL COAST AND SANTA YNEZ VALLEY


CITY           SKY/WX    TMP DP  RH WIND       PRES   REMARKS
SAN LUIS OBISP SUNNY     69  54  58 W6        30.01F
SANTA MARIA    CLOUDY    64  55  72 N6        30.03F

CITY           SKY/WX    TMP DP  RH WIND       PRES   REMARKS
*CAL POLY SLO    N/A     68  57  68 W6          N/A
*LOMPOC        CLOUDY    65  55  70 W12       30.02F
*PISMO BEACH     N/A     60  56  87 W6        30.03F
*SANTA YNEZ    FAIR      73  52  46 SW12      29.99F

$$

CAZ037-038-051-292200-
SAN LUIS OBISPO COUNTY INTERIOR AND CUYAMA VALLEY


CITY           SKY/WX    TMP DP  RH WIND       PRES   REMARKS
*CUYAMA          N/A     82  41  23 N6        29.86S
PASO ROBLES    SUNNY     73  52  47 SW18      29.96F

$$

CAZ032-033-061-292200-
SOUTHERN DESERTS


CITY           SKY/WX    TMP DP  RH WIND       PRES   REMARKS
BLYTHE         SUNNY     90  33  13 S3G17     29.86F
IMPERIAL       SUNNY     91  49  23 NE9       29.84F
PALM SPRINGS   SUNNY     89  45  21 E9        29.88F
THERMAL        SUNNY     90  34  13 SE7G18    29.84F

$$

ELSEWHERE ACROSS THE WESTERN UNITED STATES AND MEXICO


CITY           SKY/WX    TMP DP  RH WIND       PRES   REMARKS
DEATH VALLEY,    N/A    104  34   9 SE3         N/A  HX  97
DENVER, CO     CLOUDY    73  45  36 S3        30.09F
GRAND CANYON,  MOSUNNY   77  16  10 S3G21     30.15F
HONOLULU, HI   MOSUNNY   81  66  61 SW10      30.02S
KAHULUI, MAUI  MOSUNNY   84  66  54 NE10      30.02F
LAKE TAHOE, CA MOSUNNY   66  38  35 N9        30.15S
LAS VEGAS, NV  MOSUNNY   91  23   8 E9        29.86F
MAMMOTH LAKES, FAIR      65  27  23 SW3       30.19S
MEXICO CITY, M MOSUNNY   79  37  22 NE12      30.31F
PHOENIX, AZ    SUNNY     94  20   7 S8G22     29.86F
PORTLAND, OR   MOSUNNY   68  40  35 W5        30.15F
RENO, NV       MOSUNNY   80  34  19 NE5       30.03F
SALT LAKE CITY PTSUNNY   77  40  26 N8        30.03S THUNDER
SAN DIEGO, CA  CLOUDY    67  54  63 W8        30.02F
SAN FRANCISCO, MOSUNNY   71  52  50 NE8       29.98F
SAN JOSE, CA   SUNNY     81  50  33 N6        29.96F
SEATTLE, WA    PTSUNNY   60  47  61 NE15      30.18R
TIJUANA, MEX   CLOUDY    64  52  63 NW13      30.03F

$$

STATION/POSITION TIME  TEMP    WIND        PRES    VSBY  WAVE
                       AIR SEA DIR/SP/G                  HT/PER
                 (UTC) (F)     (DEG/KT/KT) (MB)    (MI)  (FT/S)
POINT ARGUELLO B NOT AVBL
WEST SANTA BARBA 2050   57 57  270/  6/  8 1016.7F         4/15
POINT CONCEPTION NOT AVBL
EAST SANTA BARBA 2000   58 57  270/  6/  8 1017.4F
SANTA MONICA BAY 2050   60 65  250/  8/ 10 1016.8F         3/15



USA.gov is the U.S. government's official web portal to all federal, state and local government web resources and services.